THOR ABLESTAR DEB, 152

Orbit data source: Space-Track

THOR ABLESTAR DEB, 152 is space debris in LEO originally from a launch on Thu, 29 Jun 1961 UTC launched from the Air Force Eastern Test Range (AFETR). Debris objects in space refer to the collection of defunct objects orbiting the Earth. Examples of debris include non-operational satellites, rocket bodies, and fragments generated from explosions, collisions, or faulty payload assembly.

Loading next visibility...
THOR ABLESTAR DEB details
Identifier
152, 1961-015AN
Orbit
LEO
Last TLE update18 hours ago
Origin
Flag of USUSAF SSD (US)
ManufacturerUnknown
MissionSpacecraft
Bus & MotorUnknown
MassUnknown
Launch date (UTC)
1961-06-29 (63 years ago)
Launch vehicleUnknown
Launch site
Air Force Eastern Test Range (AFETR)
Object type
Payload
Rocket body
Debris
Shape & HBRUnknown
Radar Cross SectionMedium (>0.1 m² and <1 m²)

Expand to show TLE details & history

TLE from 18 hours ago
0 THOR ABLESTAR DEB
1 00152U 61015AN  24355.77072345  .00000690  00000-0  38509-3 0  9998
2 00152  66.5936 264.1888 0154635 208.3603 150.9006 14.10825453249401
Epoch: 2024-12-20T18:29Z
Definitive object data (Epoch: 2024-12-20T18:29:50.506Z)
Latitude0.00007°
Longitude-103.10307°
Altitude956.792 km
Speed7.324 km/s
True Right ascension17h 36m 45s
True Declination0° 00' 00"
Sunlit
Object was in daylight at TLE epoch
Visualization TLE readout
Latitude-66.62111°
Longitude159.83773°
Altitude823.887 km
Speed7.47 km/s
Apparent Right ascension00h 41m 50s
Apparent Declination-78° 40' 29"
Sunlit
Object is in daylight
Visualization observer readout
Local Sidereal Time11:48:16
Azimuth184.133° SSW
Elevation-50.868°
Doppler factor1
Orbital elements
Apogee altitude966.799 km
Perigee altitude743.101 km
Semi-major axis7,233.087 km
Eccentricity0.0154635
Inclination66.5936°
RAAN264.1888°
Arg. of periapsis208.3603°
True anomaly151.74801°
Mean anomaly150.9006°
Eccentric anomaly151.32573°
Mean motion3.52824 °/min
BSTAR0.00038509
Orbital period102.03 mins
Loading maneuver chart data...

THOR ABLESTAR DEB Visibility forecast

Observer location: undefined°, undefined

Span
Click to sort rows by Start time (UTC) header in descending order
Start Az.
Max El. time (UTC)
Max El. Az.
Max El.
End time (UTC)
End Az.
9 mins2024-12-21 18:25:24.922Z156.645° SSE2024-12-21 18:30:24.922Z103.891° ESE21.961°2024-12-21 18:34:24.922Z60.072° ENE
10 mins2024-12-21 20:10:24.922Z228.729° WSW2024-12-21 20:14:24.922Z287.56° WNW40.389°2024-12-21 20:20:24.922Z21.331° NNE
4 mins2024-12-21 21:59:24.922Z307.05° NW2024-12-21 22:01:24.922Z327.388° NNW12.975°2024-12-21 22:03:24.922Z347.116° N
7 mins2024-12-22 03:22:24.922Z4.194° NNE2024-12-22 03:25:24.922Z41.391° NE20.158°2024-12-22 03:29:24.922Z91.058° ESE
8 mins2024-12-22 05:07:24.922Z320.592° NNW2024-12-22 05:11:24.922Z223.086° SW41.667°2024-12-22 05:15:24.922Z166.247° S
|